Location: *
(45.3500°N, 10.9500°E)
Time: 23:10:19
(UTC+00:00)

Daily predictions for brighter satellites

Satellite Brightness Start Highest point End
(mag) Time Altitude Azimuth Time Altitude Azimuth Time Altitude Azimuth
CSL-04 Debris 4.3 17:38:15 10° SSE 17:43:39 89° WSW 17:49:05 10° NNW
Cosmos 1378 3.2 17:40:42 10° N 17:44:29 88° E 17:48:14 10° S
Cosmos 405 4.2 17:43:12 10° NNW 17:46:35 47° W 17:49:56 10° S
Envisat 3.9 17:44:44 10° S 17:49:42 55° W 17:54:43 10° NNW
ISS -2.0 17:48:39 10° S 17:50:53 17° SE 17:53:07 10° E
Okean 1 Rocket 3.2 17:55:25 10° SSE 17:59:37 50° E 18:03:51 10° NNE
Cosmos 2154 Rocket 4.1 17:54:58 10° N 18:01:06 59° ENE 18:07:13 10° SSE
Cosmos 2251 Rocket 4.3 17:56:48 10° NNW 18:02:06 59° WSW 18:07:21 10° S
USA 116 4.3 18:00:09 10° N 18:04:03 59° WNW 18:07:30 10° SSW
H-2A R/B 3.2 18:02:08 10° ESE 18:05:55 22° ENE 18:09:46 10° NNE
SL-16 R/B 3.7 18:03:17 10° N 18:07:28 20° NE 18:11:05 12° E
Cosmos 1707 3.1 18:04:01 10° N 18:07:46 42° ENE 18:11:30 10° SSE
FREGAT/IRIS 3.3 18:05:55 10° SE 18:08:26 31° ENE 18:10:59 10° N
Cosmos 2219 Rocket 2.3 18:04:57 10° NNW 18:10:34 80° WSW 18:16:09 10° SSE
CZ-4 R/B 3.4 18:09:01 10° SSW 18:12:29 31° W 18:16:03 10° NNW
Cosmos 1025 Rocket 3.6 18:08:46 10° NNW 18:13:00 61° W 18:17:11 10° S
Cosmos 2184 Rocket 4.4 18:09:53 10° NNW 18:16:05 70° W 18:22:20 10° S
Resurs 01 Rocket 3.4 18:15:28 13° E 18:16:55 15° ENE 18:19:24 10° NNE
GP-B 3.1 18:14:41 10° N 18:19:09 87° W 18:23:35 10° S
NOAA 11 4.3 18:14:35 10° SSE 18:20:05 85° WSW 18:25:37 10° NNW
COSMOS 2428 3.2 18:16:55 10° NNW 18:22:32 64° WSW 18:28:08 10° S
SJ-6B 3.5 18:21:29 13° SE 18:24:51 38° ENE 18:28:39 10° N
MONITOR-E 3.8 18:22:06 10° SSE 18:24:54 89° E 18:27:43 10° NNW
NOSS 0 Rocket 3.9 18:18:55 10° NNW 18:25:10 82° ENE 18:31:24 10° SSE
Cosmos 1461 4.3 18:21:50 10° WSW 18:25:35 37° NW 18:29:18 10° NNE
SAR-Lupe-2 3.5 18:23:47 10° NNE 18:27:21 57° ESE 18:30:51 10° S
SL-8 R/B 4.0 18:22:36 10° W 18:27:22 64° N 18:31:18 15° ENE
Cosmos 1544 3.5 18:25:00 10° SSW 18:28:33 62° W 18:32:09 10° N
DELTA 2 R/B (1) 4.4 18:23:58 10° SW 18:28:56 33° SSE 18:32:01 20° ESE
NOSS 3-4 (A) 3.9 18:23:17 10° NW 18:30:20 89° SW 18:38:04 10° SE
NOSS 3-4 (C) 3.9 18:23:23 10° NW 18:30:26 89° SW 18:38:08 10° SE
Cosmos 389 Rocket 2.5 18:27:37 10° N 18:30:58 51° ENE 18:33:22 17° SSE
Ariane Rocket 3.4 18:26:54 10° S 18:31:56 66° WSW 18:37:00 10° NNW
Cosmos 614 Rocket 4.0 18:27:27 10° NNW 18:32:39 60° ENE 18:36:57 15° SE
CZ-2D R/B 4.4 18:29:22 10° S 18:33:00 45° W 18:36:41 10° NNW
Cosmos 1892 Rocket 3.8 18:29:46 10° N 18:34:05 47° ENE 18:37:25 16° SSE
MOS 1 4.3 18:31:27 10° SSE 18:37:09 88° ENE 18:42:53 10° NNW
ARGOS 3.6 18:35:07 18° SE 18:38:43 41° ENE 18:43:46 10° N
Cosmos 2227 Rocket 2.5 18:33:46 10° S 18:39:03 43° ESE 18:44:24 10° NE
HJ-1C 4.2 18:37:56 10° S 18:41:14 52° W 18:44:34 10° NNW
Nadezhda 1 Rocket 4.3 18:35:21 10° SSW 18:41:22 67° W 18:47:27 10° N
GEOS 3 Rocket 3.6 18:37:14 14° SE 18:41:42 81° SW 18:46:51 10° NW
Cosmos 2219 3.1 18:36:11 10° SSW 18:41:55 77° ESE 18:47:40 10° NNE
Cosmos 1939 Rocket 4.1 18:39:14 10° S 18:42:53 41° W 18:46:34 10° NNW
USA 186 1.8 18:40:49 19° SSE 18:43:06 70° ENE 18:46:32 10° N
Cosmos 2056 Rocket 3.6 18:38:13 10° S 18:43:32 58° ESE 18:48:50 10° NNE
Cosmos 407 Rocket 3.4 18:39:05 10° NNW 18:44:14 79° ENE 18:48:24 16° SSE
Lacrosse 5 rocket 1.5 18:42:00 10° SSW 18:45:23 38° SE 18:46:00 35° ESE
ADEOS Rocket 3.8 18:38:48 10° NNE 18:45:54 46° E 18:53:16 10° S
Cosmos 962 Rocket 4.5 18:40:26 10° N 18:46:47 83° E 18:53:09 10° S
Okean 1-7 Rocket 3.5 18:43:33 10° N 18:48:00 68° E 18:51:27 16° SSE
Cosmos 2297 Rocket 2.2 18:44:04 10° S 18:49:33 55° ESE 18:55:05 10° NE
Cosmos 1624 Rocket 3.9 18:50:03 10° SSW 18:55:13 75° ESE 19:00:25 10° NNE
Meteor 1-15 Rocket 4.3 18:53:53 10° S 18:59:40 90° SE 19:05:35 10° N
Meteor 1-4 Rocket 2.4 18:57:50 10° NNW 19:01:24 87° W 19:02:40 37° S
Cosmos 405 Rocket 2.5 18:58:10 10° S 19:01:50 88° ESE 19:05:35 10° N
Cosmos 1437 Rocket 2.9 19:02:08 10° N 19:05:42 47° ENE 19:05:42 47° ENE
Cosmos 1140 Rocket 3.3 19:00:42 10° NNW 19:05:54 81° ENE 19:08:26 31° SSE
CZ-2C R/B 3.5 19:04:56 35° ESE 19:06:33 46° ENE 19:11:49 10° N
Cosmos 1954 Rocket 4.0 19:01:22 10° NNW 19:06:34 62° ENE 19:08:25 38° SE
Spot 2 Rocket 4.4 19:08:48 29° ENE 19:09:01 30° ENE 19:13:21 10° N
ASTEX 1 4.0 19:05:28 10° N 19:10:15 57° W 19:15:01 10° SSW
GENESIS II 4.2 19:06:29 10° NW 19:10:37 83° NE 19:11:21 59° SE
In-Cosmos 22 4.3 19:07:58 10° NNW 19:13:20 71° W 19:18:25 12° S
ATLAS 2AS CENTAUR R/B 4.1 19:06:39 10° NW 19:13:27 37° WSW 19:19:44 10° S
Cosmos 1544 Rocket 3.5 19:11:23 28° S 19:13:38 69° E 19:18:06 10° NNE
Cosmos 1455 Rocket 2.9 19:09:38 10° S 19:14:04 85° E 19:18:33 10° N
Cosmos 2084 Rocket 3.4 19:09:58 10° SW 19:14:25 83° SE 19:17:39 19° NE
SPOT 3 Rocket 3.7 19:10:35 15° S 19:14:51 71° WSW 19:20:01 10° NNW
Cosmos 2333 Rocket 4.3 19:11:02 10° NW 19:15:34 25° WSW 19:20:04 10° SSW
Meteor 1-24 Rocket 3.8 19:13:24 10° N 19:19:10 64° ENE 19:21:13 40° SE
Cosmos 2237 Rocket 2.8 19:15:06 10° NNW 19:20:41 56° WSW 19:24:31 20° S
SL-24 R/B 4.3 19:22:08 57° ESE 19:22:41 62° ENE 19:27:36 10° N
Cosmos 1674 2.9 19:19:34 10° N 19:22:42 58° NNE 19:22:42 58° NNE
ERBS 3.3 19:20:59 10° NW 19:23:37 39° N 19:23:37 39° N
ISS -2.8 19:23:57 10° WSW 19:26:19 43° WSW 19:26:19 43° WSW
Cosmos 2181 Rocket 4.2 19:22:19 10° SSW 19:28:33 74° W 19:34:56 10° N
SL-08 R/B 4.5 19:22:47 10° N 19:29:14 68° E 19:31:26 43° SSE
Cosmos 1805 3.8 19:30:39 49° NNE 19:30:39 49° NNE 19:33:35 10° N
RESURS DK-1 3.7 19:28:04 10° N 19:30:49 28° NNE 19:30:49 28° NNE
Cosmos 1626 Rocket 3.6 19:29:31 10° N 19:33:19 62° NNE 19:33:19 62° NNE
Cosmos 1452 Rocket 3.7 19:38:51 53° ENE 19:38:51 53° ENE 19:43:05 10° NNE
Nadezhda 3 Rocket 4.4 19:38:58 42° ENE 19:38:58 42° ENE 19:44:05 10° NNE
Cosmos 676 Rocket 4.2 19:34:28 10° NNW 19:39:41 65° WSW 19:41:11 44° S
Resurs 1-3 3.9 19:42:46 59° SW 19:43:15 64° WSW 19:47:38 10° NNW
H-2A R/B 2.7 19:42:43 28° SSW 19:44:59 50° W 19:49:54 10° NNW
Cosmos 2218 Rocket 4.3 19:38:50 10° NNW 19:45:09 66° W 19:49:01 24° S
Meteor 2-5 Rocket 4.3 19:39:46 10° NNW 19:45:30 60° W 19:48:45 26° SSW
Cosmos 2366 rocket 4.3 19:40:50 10° NNW 19:47:09 68° W 19:50:40 28° S
SL-16 R/B 2.1 19:46:35 10° NNW 19:52:18 80° WSW 19:52:59 68° S
Terra 4.1 19:54:27 14° NNE 19:54:27 14° NNE 19:55:33 10° NNE
Resurs 01 Rocket 1.9 19:53:03 66° W 19:53:03 66° W 19:57:19 10° NNW
Cosmos 1602 Rocket 4.2 19:50:38 10° N 19:53:54 50° NNW 19:53:54 50° NNW
Cosmos 1821 Rocket 4.0 19:49:25 10° N 19:55:11 57° ENE 19:55:11 57° ENE
Meteor 1-22 Rocket 4.5 19:51:40 20° SSW 19:56:04 77° WNW 20:02:13 10° N
CZ-2C R/B 3.8 19:55:50 10° NNE 19:58:59 33° NE 19:58:59 33° NE
Cosmos 2082 4.1 20:00:58 10° SW 20:06:38 64° WNW 20:12:21 10° NNE
SL-8 R/B 4.4 20:05:28 10° WNW 20:09:16 52° NW 20:09:16 52° NW
MetOp-B 4.3 20:12:35 70° NNW 20:12:35 70° NNW 20:17:20 10° NNW
Cosmos 1850 Rocket 4.3 20:07:04 10° NNW 20:11:25 63° NNW 20:11:25 63° NNW
Cosmos 2227 Rocket 3.8 20:18:09 10° WSW 20:23:13 33° NW 20:28:20 10° N
Lacrosse 5 rocket 4.0 20:21:10 10° W 20:21:44 14° W 20:21:44 14° W
USA 234 4.5 20:31:34 28° NE 20:33:38 34° N 20:39:23 10° NW
Cosmos 2297 Rocket 4.1 20:29:09 10° WSW 20:33:56 27° NW 20:38:44 10° N
ERS-1 Rocket 4.4 20:40:43 33° N 20:40:43 33° N 20:43:28 10° NNW
Cosmos 1943 4.3 20:48:23 10° NNW 20:51:54 39° NNW 20:51:54 39° NNW
Terra 4.4 21:33:21 17° NNW 21:33:21 17° NNW 21:34:27 10° NNW
CZ-4C R/B 3.9 21:45:43 10° NNW 21:50:39 37° N 21:50:39 37° N
SL-16 R/B 4.5 23:39:41 23° NE 23:39:41 23° NE 23:42:59 10° N
